Lapse_Rate
6.3 6.3 6.2 6.2 6.1 5.8 5.8 5.9 5.9 5.8 5.7 5.8 5.7 5.7 5.6 5.6 5.4 5.4 5.3 5.4 5.4 5.5 5.7 5.8 5.7 5.7 5.5 5.5 5.5 5.5 5.6 5.7 5.7 5.6 5.5 5.6 5.6 5.6
6.5 6.6 6.6 6.3 5.9 5.7 6.1 6.2 5.8 5.8 5.5 5.6 5.5 5.8 5.6 5.4 5.4 5.4 5.4 5.5 5.6 5.4 5.4 5.6 5.5 5.5 5.6 5.9 6.0 6.0 6.0 5.9 5.9 6.0 6.0 5.8 5.5 5.5
6.2 6.2 6.3 6.1 6.1 6.0 5.9 6.0 5.8 5.5 5.5 5.6 5.8 5.6 5.7 5.4 5.5 5.7 5.8 5.6 5.3 5.8 6.1 6.2 6.1 6.0 6.1 6.1 6.2 6.2 6.2 6.2 6.1 6.0 5.9 5.9 5.8 5.3
6.0 6.0 6.1 6.0 6.0 5.8 5.9 5.8 5.6 5.8 5.8 5.5 5.7 5.5 5.4 5.6 6.0 5.8 5.7 5.8 6.0 6.0 6.0 6.1 6.2 6.2 6.2 6.2 6.3 6.4 6.3 6.2 6.2 6.1 5.9 5.7 5.7 5.3
6.3 6.2 5.9 5.9 5.9 5.4 5.4 5.4 5.6 5.5 5.5 5.6 5.7 6.0 5.9 6.1 6.1 6.1 6.1 6.0 6.0 6.1 6.1 6.1 6.2 6.2 6.2 6.0 5.9 6.0 6.1 6.1 6.1 6.1 5.9 5.6 5.2 4.9
5.7 5.8 5.7 6.0 5.9 5.4 5.6 5.7 5.9 6.1 6.1 6.3 6.5 6.5 6.6 6.5 6.2 6.2 6.1 6.0 6.0 5.8 5.9 5.9 5.9 5.9 5.7 5.7 5.8 5.8 5.8 5.9 5.8 5.6 5.3 4.9 4.7 4.4
5.5 5.6 5.6 5.8 5.7 5.6 6.3 6.5 6.4 6.3 6.3 6.3 6.2 6.2 6.1 6.1 6.1 6.0 5.9 6.0 6.0 5.9 6.0 5.9 5.9 5.8 5.6 5.8 5.8 5.7 5.5 5.5 5.3 5.1 4.8 4.6 4.3 3.9
5.9 6.3 6.5 6.4 6.1 5.9 5.9 5.9 6.0 6.0 6.0 6.1 6.1 6.1 6.0 6.0 6.0 6.0 6.0 6.1 6.1 6.0 6.2 6.1 5.8 5.7 5.7 5.6 5.5 5.3 5.1 5.0 4.9 4.6 4.4 4.0 4.0 3.5
6.1 6.0 5.9 5.7 5.6 5.6 5.6 5.7 5.7 5.8 5.9 5.8 5.8 5.8 5.7 5.6 5.8 5.8 5.8 5.8 5.8 5.6 5.6 6.0 5.6 5.5 5.2 5.0 4.8 4.6 4.3 4.2 4.2 4.1 4.0 3.6 3.3 3.4
5.8 5.8 5.8 5.7 5.7 5.7 5.6 5.6 5.6 5.7 5.7 5.7 5.7 5.6 5.6 5.5 5.5 5.6 5.5 5.6 5.6 5.1 4.8 5.4 4.7 4.7 4.4 4.0 3.9 3.9 3.8 3.8 3.5 3.2 3.3 3.1 2.9 3.0
5.5 5.5 5.5 5.5 5.5 5.5 5.5 5.4 5.3 5.3 5.2 5.2 5.2 5.2 5.3 5.2 5.3 5.3 5.2 5.3 5.3 5.0 4.3 4.6 4.4 4.5 4.0 3.6 3.5 3.3 3.5 3.6 3.2 3.4 3.6 3.5 3.6 3.6
5.3 5.2 5.2 5.2 5.1 5.1 5.1 5.1 5.1 5.0 5.0 4.9 4.8 4.9 4.9 4.9 4.9 4.8 4.8 4.8 4.6 4.7 3.8 4.0 3.7 3.7 4.1 3.9 3.8 3.3 3.3 3.5 3.6 4.0 4.0 4.0 3.9 3.6
5.1 5.0 4.9 4.8 4.7 4.7 4.7 4.8 4.9 5.1 5.1 5.2 5.2 5.1 5.1 5.0 4.9 4.8 4.5 4.3 4.0 3.9 3.6 3.5 3.5 3.7 3.7 3.9 4.4 4.1 4.1 4.3 4.2 4.3 4.4 4.1 4.0 4.1
4.9 4.8 4.7 4.7 4.7 4.6 4.7 4.7 4.8 4.8 4.9 5.0 5.1 5.1 5.0 4.9 4.9 4.7 4.5 4.2 4.1 4.0 4.1 3.8 3.9 3.7 3.8 4.2 4.5 4.6 4.4 4.5 4.6 4.7 4.7 4.8 5.5 6.1
4.5 4.5 4.5 4.5 4.5 4.6 4.6 4.6 4.7 4.7 4.8 4.8 4.8 4.8 4.9 5.0 4.9 4.8 4.6 4.8 4.6 4.3 4.2 4.1 4.2 4.2 4.2 4.4 4.8 4.7 5.2 4.8 5.3 5.7 6.3 6.1 6.7 6.5
4.5 4.5 4.5 4.5 4.6 4.6 4.7 4.8 4.9 5.1 5.2 5.2 5.2 5.3 5.3 5.3 5.1 5.1 5.0 4.9 4.9 4.7 4.5 4.5 4.5 4.4 4.5 4.4 4.7 5.0 5.6 6.0 6.2 6.3 6.2 6.5 6.5 6.3
4.6 4.5 4.5 4.5 4.6 4.7 5.0 5.3 5.4 5.6 5.6 5.7 5.6 5.6 5.6 5.5 5.2 5.1 5.0 5.0 4.9 5.0 4.9 4.4 4.6 4.6 4.8 4.9 5.0 5.6 6.0 6.4 6.5 6.2 6.1 6.1 6.0 5.9
4.3 4.3 4.4 4.5 5.0 5.4 5.7 5.9 6.0 5.9 5.8 5.7 5.7 5.7 5.6 5.3 5.1 4.9 4.9 4.8 4.9 4.8 4.7 4.7 4.7 4.9 5.5 5.7 6.0 6.4 6.5 6.4 6.2 6.0 5.8 5.5 5.4 5.8
4.1 4.2 4.5 4.9 5.4 5.9 6.3 6.3 6.2 6.1 6.0 5.9 5.7 5.5 5.3 5.1 5.0 4.9 4.8 4.7 4.7 4.7 4.8 4.8 5.0 5.7 6.3 6.6 6.8 6.8 6.4 6.1 6.0 5.8 5.5 4.8 5.1 4.9
4.0 4.2 4.6 5.2 5.9 6.6 6.8 6.5 6.2 6.0 5.8 5.6 5.4 5.2 5.1 4.9 4.8 4.7 4.6 4.7 4.8 4.9 4.8 5.0 5.6 6.2 6.6 6.9 6.8 6.6 6.3 5.9 5.7 5.3 5.0 4.9 4.4 4.6
4.2 4.7 5.2 6.2 6.7 6.6 6.4 6.1 6.0 5.8 5.7 5.4 5.2 4.9 4.8 4.8 4.5 4.6 4.8 4.9 4.9 5.1 5.3 5.7 6.2 6.6 6.7 6.7 6.7 6.4 6.1 5.6 5.3 5.1 5.1 5.1 5.0 5.2
4.9 5.6 6.4 6.4 6.3 6.2 6.0 5.8 5.6 5.5 5.2 5.1 4.8 4.7 4.6 4.4 4.5 4.7 4.9 4.9 5.1 5.4 5.8 6.2 6.5 6.6 6.6 6.5 6.5 6.2 5.8 5.5 5.0 5.1 5.0 5.0 5.0 5.5
5.8 6.1 6.1 6.0 5.8 5.6 5.5 5.3 5.3 5.1 5.0 4.9 4.7 4.4 4.4 4.4 4.7 4.7 5.0 5.2 5.6 6.0 6.2 6.3 6.4 6.5 6.5 6.3 6.2 5.9 5.6 5.2 4.9 5.0 4.8 5.1 5.2 5.4
Wind_Speed
6 5 6 6 5 6 7 7 8 5 5 3 3 5 4 8 9 6 7 8 7 8 10 11 13 14 17 19 22 22 23 23 24 24 22 20 22 29
5 6 8 6 6 5 5 4 5 5 3 1 3 3 4 6 7 7 7 9 9 12 15 14 15 17 18 19 20 21 22 23 24 25 25 27 26 30
2 7 1 1 4 3 3 2 2 1 2 2 2 3 1 5 4 7 7 7 8 12 14 16 17 19 21 22 22 22 21 22 24 26 26 26 29 31
7 5 6 5 6 5 4 6 6 4 3 1 2 3 3 3 3 4 3 9 8 11 15 20 21 22 22 22 21 20 20 22 22 23 26 28 30 32
8 9 8 5 6 5 6 3 4 4 3 2 2 2 1 2 3 3 4 5 8 14 18 18 22 21 21 24 23 22 23 24 23 22 24 26 29 30
6 11 6 5 7 7 5 4 4 4 3 2 2 2 2 3 3 3 6 3 6 10 15 17 19 22 25 24 25 23 24 25 26 26 25 24 25 22
6 12 8 10 14 10 4 4 5 3 3 2 2 2 2 3 4 3 3 6 6 4 4 6 8 8 11 18 19 21 24 26 26 26 26 25 25 22
8 7 6 8 8 11 11 10 7 2 2 2 2 2 3 3 2 4 7 9 6 3 5 9 5 10 9 12 21 25 23 26 25 25 24 23 22 22
5 5 5 4 6 5 8 9 9 9 6 1 1 2 3 3 9 8 8 7 7 8 7 8 4 9 8 14 23 25 23 21 21 22 23 23 21 21
5 5 5 4 5 5 5 4 4 4 4 3 3 4 5 7 7 7 8 8 7 6 4 7 6 7 7 9 21 17 16 19 20 22 24 25 22 21
5 4 4 3 7 9 4 4 3 3 6 9 11 13 14 14 12 7 4 6 7 7 5 4 3 7 9 8 5 10 16 18 20 25 28 20 20 12
4 4 3 4 9 10 5 5 6 5 5 5 5 6 9 8 12 6 6 7 7 6 0 4 7 3 4 2 3 3 5 14 19 21 20 17 15 6
2 1 2 7 9 9 8 3 4 4 7 4 4 3 4 4 5 6 5 5 7 7 8 4 4 6 3 4 2 2 3 6 7 8 16 11 9 6
1 1 2 5 8 7 4 8 9 7 3 4 4 4 5 6 4 6 8 8 9 9 13 6 3 4 5 7 6 2 4 3 3 3 3 6 7 6
1 2 5 7 6 4 5 6 6 3 3 3 5 4 4 6 6 6 7 10 9 9 8 6 4 5 5 6 6 8 7 2 4 2 2 2 2 2
3 3 4 4 6 3 2 3 2 3 3 4 5 4 4 4 6 6 8 7 7 6 5 9 5 3 4 6 6 8 4 3 3 2 2 2 2 2
4 1 2 3 2 1 1 2 1 3 2 2 4 5 5 5 6 5 6 7 7 6 6 4 5 5 5 5 5 3 3 2 2 2 2 2 2 3
3 4 6 5 2 2 2 2 1 4 1 4 5 5 5 6 6 6 6 7 7 7 6 5 2 3 3 3 5 4 3 2 2 2 2 2 3 3
2 3 3 2 2 2 2 2 2 2 2 3 3 5 6 6 8 6 7 7 7 7 7 5 1 1 1 2 2 2 2 2 2 1 1 1 2 5
2 3 3 2 2 2 4 2 2 3 2 3 3 3 5 6 6 7 6 7 7 8 7 3 2 3 3 3 2 2 6 1 1 2 2 2 3 11
2 2 2 2 3 2 2 2 3 3 4 2 3 3 4 5 6 6 7 13 13 7 8 6 4 9 2 1 2 2 2 4 2 2 1 2 2 4
3 3 3 3 3 3 3 3 4 4 3 3 4 4 4 5 6 7 7 7 7 7 8 6 5 0 0 1 1 1 1 2 4 5 6 1 1 3
4 3 3 4 4 4 4 5 5 5 4 4 4 3 3 6 6 6 7 7 7 7 8 5 1 1 1 1 2 1 1 2 2 1 2 4 2 10
Wind_Direction
223 223 237 235 235 238 248 239 245 251 238 236 201 25 69 82 62 37 35 9 345 339 335 321 318 317 314 308 304 303 303 300 296 293 272 267 259 228
221 229 239 234 232 229 218 222 218 239 213 211 75 46 36 36 45 27 14 334 333 339 335 324 314 312 307 303 302 300 298 297 297 290 287 279 271 227
310 258 62 140 113 63 48 55 68 330 196 79 62 61 77 42 5 360 360 342 339 335 333 328 327 321 312 309 304 301 309 310 303 295 286 282 277 257
33 30 78 76 29 75 80 77 54 25 35 297 4 12 48 26 347 347 343 336 334 329 330 322 317 311 313 311 310 307 310 311 307 304 298 286 278 283
75 55 25 33 91 32 45 53 60 50 39 27 325 356 309 8 343 348 336 337 335 324 317 313 314 315 319 314 313 310 303 303 302 302 303 297 281 276
76 90 51 39 59 77 60 45 45 47 30 14 320 328 341 354 358 342 337 334 323 317 311 310 324 325 317 319 313 305 301 303 305 306 307 309 283 261
99 79 76 74 70 67 62 39 44 41 28 4 341 329 310 350 351 333 304 315 317 282 305 322 312 300 294 301 301 303 303 306 304 304 304 304 306 243
77 76 73 65 60 61 58 47 48 53 23 18 16 326 303 302 300 320 328 330 335 302 317 302 296 298 300 302 298 304 304 309 307 306 303 304 312 258
94 98 86 66 60 55 42 39 28 21 23 41 321 299 310 310 328 318 311 297 294 295 295 297 290 288 288 293 295 304 314 315 316 313 308 305 294 286
74 83 94 60 32 48 39 25 10 360 355 3 352 297 312 325 316 308 305 304 296 287 292 289 299 284 288 295 294 312 321 325 332 327 314 299 291 284
49 69 102 65 14 5 37 12 12 352 345 357 1 340 326 321 318 333 307 312 307 310 297 280 292 308 304 288 291 323 333 335 342 337 322 288 280 218
53 46 43 27 7 5 31 20 360 326 353 358 343 337 321 316 326 331 319 310 307 305 318 323 305 326 308 272 306 310 325 337 342 342 334 60 82 78
89 25 353 359 353 357 1 8 292 345 360 348 319 305 312 314 320 305 286 281 290 281 293 305 296 306 247 302 300 300 324 333 339 338 359 47 61 72
195 236 292 332 344 346 3 335 345 7 352 325 308 327 325 326 294 295 284 273 255 271 290 286 265 288 293 301 295 319 304 309 324 319 340 347 6 346
136 299 337 341 351 2 329 344 13 1 327 309 320 317 313 300 300 303 298 283 277 268 283 277 251 280 277 277 288 305 320 311 331 346 358 341 329 333
347 333 325 345 343 330 19 2 2 346 303 312 323 325 307 311 309 312 311 308 304 304 275 268 249 256 284 279 291 298 288 290 332 358 334 299 296 304
293 295 321 317 317 312 321 311 236 336 309 334 315 311 302 305 307 311 308 309 305 310 312 294 245 246 253 266 304 285 285 283 296 313 355 309 297 300
308 291 292 294 261 250 253 255 246 323 294 316 308 303 301 305 306 316 314 314 307 306 303 302 296 328 330 272 240 300 291 302 338 10 0 319 301 316
219 260 275 283 257 225 214 224 286 298 310 286 282 296 302 309 316 308 316 316 310 306 292 289 247 192 304 262 280 3 296 303 347 355 330 302 294 315
203 248 251 270 253 226 276 277 283 308 290 288 279 277 297 296 306 308 306 305 304 307 304 285 246 229 201 228 285 290 336 266 45 335 328 327 306 300
212 182 201 227 265 266 258 247 268 271 278 251 267 267 276 295 294 293 294 307 313 309 302 301 281 291 188 35 358 328 324 348 188 161 10 11 330 327
222 208 188 207 234 233 235 243 255 264 265 263 257 255 275 284 284 288 292 296 299 295 295 295 288 12 51 193 241 280 358 353 23 83 41 282 314 358
217 211 191 212 218 231 227 243 244 254 236 246 255 249 251 280 280 280 285 286 289 291 293 295 274 234 223 223 193 72 102 357 358 58 30 346 105 101